Regional Weather Roundup
Issued by NWS Charleston, SC

Current Version | Previous Version | Text Only | Print | Product List | Glossary Off
Versions: 1 2 3 4 5 6 7 8 9 10 11 12 13 14 15 16 17 18 19 20 21 22 23 24 25 26 27 28 29 30 31 32 33 34 35 36 37 38 39 40 41 42 43 44 45 46 47 48 49 50
000 ASUS42 KCHS 070412 RWRCHS REGIONAL WEATHER ROUNDUP NATIONAL WEATHER SERVICE CHARLESTON SC 1200 AM EDT TUE JUL 07 2015 NOTE: "FAIR" INDICATES FEW OR NO CLOUDS BELOW 12,000 FEET WITH NO SIGNIFICANT WEATHER AND/OR OBSTRUCTIONS TO VISIBILITY. NOT ALL STATIONS ARE QUALITY CONTROLLED BY THE NATIONAL WEATHER SERVICE. USE DATA WITH CAUTION...ESPECIALLY DEWPOINT OBSERVATIONS. SCZ027-030-031-034>040-042>050-070500- ...SOUTHEAST SOUTH CAROLINA... CITY SKY/WX TMP DP RH WIND PRES REMARKS N CHARLESTON PTCLDY 76 72 87 SW3 30.11R WATERFRONT PAR N/A 79 74 85 VRB3 30.08S MOUNT PLEASANT FAIR 77 73 88 SW3 30.11R JOHNS ISLAND FAIR 79 75 89 SW6 30.11S PINOPOLIS NOT AVBL MONCKS CORNER FAIR 77 72 83 CALM 30.11R SUMMERVILLE FAIR 75 73 94 CALM 30.12R BEAUFORT MCAS MOCLDY 78 72 81 S3 30.11S BEAUFORT ARPT FAIR 79 72 78 SW3 30.11S HILTON HEAD IS MOCLDY 81 73 78 S5 30.12F WALTERBORO PTCLDY 73 72 94 S3 30.12R ALLENDALE FAIR 77 73 88 CALM 30.10S ...SOUTHERN MIDLANDS AND PEE DEE... CITY SKY/WX TMP DP RH WIND PRES REMARKS GEORGETOWN NOT AVBL KINGSTREE NOT AVBL ORANGEBURG CLEAR 76 72 87 S7 30.10F BARNWELL FAIR 77 73 88 S5 30.11S AIKEN NOT AVBL MANNING FAIR 77 72 83 S5 30.10S COLUMBIA CLEAR 79 69 71 SW6 30.08S SUMTER CLEAR 76 71 85 SW6 30.07S FLORENCE CLEAR 76 72 87 S6 30.09S MYRTLE BEACH CLEAR 79 70 73 S6 N/A N MYRTLE BEACH CLEAR 78 72 81 SW8 30.10S $$ GAZ063-065-086>088-099>101-113>116-118-119-134>141-150-070500- ...SOUTHEAST GEORGIA... CITY SKY/WX TMP DP RH WIND PRES REMARKS SAVANNAH ARPT MOCLDY 74 71 91 SW6 30.11F HUNTER AAF MOCLDY 75 75 100 S3 30.09F FORT STEWART MOCLDY 75 71 89 VRB3 30.10S STATESBORO NOT AVBL SYLVANIA PTCLDY 76 74 91 SW3 30.12S CLAXTON FAIR 77 73 88 CALM 30.12S ...CSRA...CENTRAL AND FAR SOUTHEAST GEORGIA... CITY SKY/WX TMP DP RH WIND PRES REMARKS THOMSON CLEAR 76 74 92 CALM 30.14S AUGUSTA-BUSH CLEAR 72 70 93 CALM 30.08F AUGUSTA-DANIEL CLEAR 79 70 74 S5 30.10S SWAINSBORO CLOUDY N/A N/A N/A CALM 30.12S VIDALIA CLEAR 73 70 88 CALM 30.12S EASTMAN FAIR 74 74 100 CALM 30.14S HAZLEHURST FAIR 76 75 99 CALM 30.11S ALMA PTCLDY 73 72 96 CALM 30.11F WAYCROSS PTCLDY 78 76 94 CALM 30.12S JESUP MOCLDY 79 73 83 CALM 30.12F BAXLEY FAIR 77 72 83 CALM 30.11F BRUNSWICK MOCLDY 73 72 94 CALM 30.12F SAINT SIMONS CLOUDY 76 71 85 SW6 30.11F $$ SCZ027-028-034-036>038-045-046-048>050-GAZ119-141-070500- ...LAKE AND SUPPLEMENTAL COASTAL OBSERVATIONS... STATION/POSITION TIME TEMP WIND PRES WAVE SWELL AIR SEA DIR/SP/G HT/PER HT/PER/DIR (UTC) (F) (DEG/KT/KT) (MB) (FT/S) (FT/S/D) UPR LAKE MARION NOT AVBL WINYAH BAY NOT AVBL LAKE MURRAY 0300 81 210/ 6/ 8 1017.9S ACE BASIN NERRS NOT AVBL FORT PULASKI 0300 78 83 170/ 5/ 8 1020.4R SAPELO ISLAND 0300 77 150/ 3 1020.0S $$ ANZ835-935-AMZ111-154-330-350-352-354-370-450-454-472-070500- ...C-MAN AND BUOY OBSERVATIONS... STATION/POSITION TIME TEMP WIND PRES WAVE SWELL AIR SEA DIR/SP/G HT/PER HT/PER/DIR (UTC) (F) (DEG/KT/KT) (MB) (FT/S) (FT/S/D) BUOY 41004 0350 81 83 200/ 14/ 16 1019.1R 3/ 8 2/ 8 BUOY 41008 0350 78 79 220/ 10/ 12 1019.8F 2/ 8 2/110/ 8 FOLLY BEACH CMAN 0300 80 230/ 8/ 12 1019.4F CAPERS NEARSHORE 0308 81 230/ 12/ 16 1019.5R FRIPP NEARSHORE 0300 81 210/ 14/ 16 1019.3F STATION/POSITION TIME TEMP WIND PRES WAVE SWELL AIR SEA DIR/SP/G HT/PER HT/PER/DIR (UTC) (F) (DEG/KT/KT) (MB) (FT/S) (FT/S/D) 5E ST. MARYS GA 0321 78 N/A 2/ 8 FRYING PAN BUOY 0350 81 80 200/ 12/ 14 1019.9R 3/ 8 2/120/ 8 BUOY 41025 0350 81 81 200/ 16/ 17 1019.7R 4/ 4 2/130/ 9 CAPE LOOKOUT NC 0300 80 210/ 12/ 14 1019.2R BUOY 41002 0350 82 80 200/ 12/ 14 1021.8S 4/ 8 3/130/ 8 BUOY 41010 0320 82 83 140/ 6/ 8 1021.4F ST AUGUSTINE FL 0400 72 71 220/ 3/ 4 1021.3F $$

USA.gov is the U.S. government's official web portal to all federal, state and local government web resources and services.